Date,TemperatureHighF,TemperatureAvgF,TemperatureLowF,DewpointHighF,DewpointAvgF,DewpointLowF,HumidityHigh,HumidityAvg,HumidityLow,PressureMaxIn,PressureMinIn,WindSpeedMaxMPH,WindSpeedAvgMPH,GustSpeedMaxMPH,PrecipitationSumIn
2013-1-1,33,25,17,32,22,13,96,87,78,30.30,30.10,17,6,17,0.00
2013-1-2,30,20,10,16,13,8,91,75,48,30.35,30.26,6,1,6,0.00
2013-1-3,39,26,17,28,21,12,88,79,62,30.44,30.27,9,1,9,0.00
2013-1-4,38,29,21,28,24,19,93,80,65,30.50,30.37,9,1,9,0.00
2013-1-5,41,34,26,33,29,23,90,81,71,30.38,30.17,14,4,14,0.00
2013-1-6,38,32,22,33,27,20,94,82,69,30.43,30.11,21,4,21,0.00
2013-1-7,43,31,22,29,25,20,93,78,54,30.48,30.24,10,1,10,0.00
2013-1-8,51,42,27,37,32,24,90,71,51,30.29,30.18,9,2,10,0.00
2013-1-9,56,47,42,47,41,34,95,80,57,30.49,30.22,14,2,14,0.00
2013-1-10,62,48,42,61,44,34,97,87,63,30.49,29.83,23,7,23,0.26
2013-1-11,62,56,52,60,51,48,95,82,69,29.94,29.82,23,8,23,0.01
2013-1-12,62,52,34,57,49,33,96,91,81,29.98,29.74,32,6,32,2.41
2013-1-13,34,28,22,33,25,16,96,88,77,30.38,29.86,27,10,27,0.19
2013-1-14,27,22,19,20,17,14,90,80,73,30.53,30.38,11,3,16,0.00
2013-1-15,29,24,19,23,19,16,90,82,73,30.43,30.23,12,2,12,0.00
2013-1-16,38,31,23,27,24,21,92,76,55,30.19,30.08,11,3,13,0.00
2013-1-17,39,34,26,34,28,22,87,77,66,30.53,30.16,22,6,22,0.00
2013-1-18,46,34,23,32,27,21,94,76,52,30.55,30.21,21,6,21,0.00
2013-1-19,56,45,37,40,35,30,83,69,53,30.24,29.98,23,9,26,0.00
2013-1-20,43,33,26,36,22,15,83,64,47,30.36,30.11,18,5,20,0.00
2013-1-21,27,22,16,19,9,-2,79,57,37,30.42,30.28,26,9,26,0.00
2013-1-22,18,16,13,12,6,-2,88,64,46,30.52,30.42,12,3,14,0.00
2013-1-23,42,27,13,26,18,10,88,69,46,30.43,30.19,15,2,21,0.00
2013-1-24,30,24,17,21,10,0,74,56,39,30.64,30.31,23,6,23,0.00
2013-1-25,41,32,27,27,18,6,79,59,39,30.30,30.15,11,2,14,0.00
2013-1-26,40,31,25,24,19,15,80,62,42,30.43,30.25,9,2,9,0.00
2013-1-27,48,36,28,46,32,20,96,87,71,30.37,30.05,17,4,17,0.29
2013-1-28,62,57,47,60,54,45,95,92,89,30.06,29.95,18,7,18,0.00
2013-1-29,68,63,53,61,58,52,97,86,70,29.95,29.37,37,13,50,0.84
2013-1-30,53,42,29,52,38,20,97,87,68,29.92,29.40,35,9,35,0.23
2013-1-31,36,27,15,29,19,4,90,70,60,30.38,29.92,33,9,33,0.00
2013-2-1,26,19,10,16,7,1,72,61,47,30.56,30.33,21,5,21,0.00
2013-2-2,42,33,26,28,23,15,86,67,51,30.33,30.09,16,6,16,0.00
2013-2-3,33,28,20,28,22,14,96,79,54,30.21,30.03,20,2,20,0.01
2013-2-4,50,37,25,43,30,17,91,77,64,30.10,29.83,19,5,19,0.04
2013-2-5,56,39,27,41,32,26,95,78,51,30.15,29.92,14,4,14,0.00
2013-2-6,50,39,27,34,31,26,95,75,50,30.29,30.10,11,2,11,0.00
2013-2-7,65,47,34,50,40,30,94,77,54,30.11,29.84,27,5,27,0.07
2013-2-8,42,36,32,39,31,26,91,83,76,30.42,30.01,23,9,23,0.00
2013-2-9,45,37,31,35,30,26,82,74,59,30.41,30.07,14,3,14,0.04
2013-2-10,55,48,40,52,44,35,94,86,59,30.10,29.65,24,6,24,0.47
2013-2-11,51,43,35,37,30,26,73,60,42,30.17,29.79,24,6,24,0.00
2013-2-12,46,39,29,35,30,25,87,71,57,30.20,29.94,8,1,8,0.00
2013-2-13,52,42,35,38,34,29,93,77,47,29.95,29.84,14,4,14,0.05
2013-2-14,56,44,34,40,35,32,92,72,44,30.07,29.87,16,4,17,0.00
2013-2-15,42,35,27,35,25,15,85,67,41,30.26,30.06,23,6,23,0.00
2013-2-16,35,28,23,24,17,11,85,65,38,30.28,30.21,19,5,19,0.00
2013-2-17,47,33,19,26,21,14,90,62,37,30.26,30.02,14,2,14,0.00
2013-2-18,55,46,37,47,40,24,94,79,59,30.02,29.64,36,10,36,0.50
2013-2-19,38,32,26,30,20,13,82,64,41,30.32,29.88,25,9,27,0.00
2013-2-20,27,24,20,17,14,11,82,68,59,30.44,30.31,17,4,17,0.00
2013-2-21,33,27,21,32,23,16,95,85,73,30.36,29.85,27,6,27,0.00
2013-2-22,38,33,24,34,30,21,96,88,72,30.10,29.84,22,4,22,0.28
2013-2-23,35,27,20,24,21,18,91,79,60,30.10,30.02,10,1,10,0.00
2013-2-24,47,34,19,31,25,17,94,73,46,30.18,30.06,11,2,11,0.00
2013-2-25,49,40,32,34,30,27,82,68,51,30.10,29.60,32,10,32,0.02
2013-2-26,51,42,36,44,38,31,94,88,66,29.66,29.36,26,9,26,0.57
2013-2-27,37,35,32,34,31,28,93,86,78,29.90,29.66,20,7,20,0.03
2013-2-28,36,34,32,32,30,28,93,88,84,30.12,29.89,16,5,16,0.00
2013-3-1,36,32,30,34,30,27,94,91,85,30.18,30.07,20,7,20,0.02
2013-3-2,32,30,26,27,24,19,88,79,60,30.25,30.17,21,9,21,0.00
2013-3-3,38,31,22,24,21,18,91,68,47,30.24,30.10,8,1,8,0.00
2013-3-4,51,43,34,36,30,23,77,62,43,30.12,29.80,18,5,18,0.00
2013-3-5,45,37,32,38,31,24,94,81,66,30.08,29.78,33,6,33,0.02
2013-3-6,38,33,29,29,27,24,87,76,68,30.37,30.08,31,9,31,0.04
2013-3-7,43,34,24,31,27,22,93,77,59,30.46,30.36,11,2,11,0.00
2013-3-8,52,40,28,34,30,26,90,67,44,30.48,30.24,18,4,18,0.00
2013-3-9,66,52,41,40,35,30,69,54,36,30.25,29.87,18,4,18,0.00
2013-3-10,64,56,49,52,46,36,95,72,43,29.88,29.67,29,6,29,0.40
2013-3-11,50,39,35,49,35,29,95,86,78,30.01,29.69,19,6,19,0.00
2013-3-12,51,38,29,32,28,22,90,68,39,30.21,30.01,23,5,23,0.00
2013-3-13,40,33,28,26,22,17,82,64,48,30.45,30.20,26,6,26,0.00
2013-3-14,46,35,24,32,26,20,91,73,52,30.44,30.15,17,3,17,0.00
2013-3-15,70,52,31,53,40,28,90,68,44,30.15,29.69,19,2,21,0.00
2013-3-16,64,50,38,51,42,34,88,76,59,30.04,29.67,25,7,25,0.00
2013-3-17,38,36,32,36,34,30,95,93,87,30.11,29.78,24,7,24,2.88
2013-3-18,47,41,38,40,38,29,97,87,63,30.01,29.67,31,4,31,0.23
2013-3-19,47,38,29,30,24,16,85,58,30,30.24,30.01,17,4,17,0.00
2013-3-20,35,32,25,28,21,15,87,65,46,30.27,30.14,28,7,28,0.00
2013-3-21,37,29,22,22,18,14,82,63,46,30.16,30.03,12,3,12,0.00
2013-3-22,42,36,31,25,23,20,72,59,45,30.09,30.02,13,3,13,0.00
2013-3-23,55,45,37,34,29,23,67,53,41,30.06,29.81,18,5,18,0.00
2013-3-24,46,35,32,36,32,31,96,91,62,29.83,29.49,23,7,23,0.34
2013-3-25,37,32,30,32,30,28,96,90,77,30.20,29.77,22,6,22,0.17
2013-3-26,42,35,29,31,27,24,86,74,54,30.38,30.19,16,5,16,0.00
2013-3-27,49,37,26,32,27,23,92,69,45,30.43,30.33,9,1,9,0.00
2013-3-28,58,46,34,38,32,26,75,60,43,30.41,30.27,14,3,14,0.00
2013-3-29,59,50,43,47,43,36,93,78,62,30.30,30.20,11,3,11,0.06
2013-3-30,59,46,36,47,43,34,97,88,60,30.23,29.94,17,2,17,0.14
2013-3-31,66,55,48,51,47,41,97,77,43,29.94,29.86,12,3,12,0.00
2013-4-1,53,43,35,43,30,22,74,60,40,30.23,29.92,19,7,19,0.00
2013-4-2,47,38,29,31,22,13,81,56,28,30.37,30.23,15,2,15,0.00
2013-4-3,52,43,32,29,24,19,82,49,30,30.41,30.26,19,4,19,0.00
2013-4-4,61,48,35,32,26,22,60,43,26,30.26,30.03,14,4,14,0.00
2013-4-5,65,52,38,42,34,26,73,52,25,30.17,30.06,15,2,16,0.00
2013-4-6,73,61,50,46,40,34,61,46,31,30.09,29.81,31,9,31,0.00
2013-4-7,78,66,56,60,52,46,88,64,44,29.94,29.83,25,6,25,1.05
2013-4-8,75,67,60,62,57,53,81,71,57,29.91,29.79,23,8,24,0.00
2013-4-9,80,71,63,64,61,56,81,70,52,29.94,29.83,32,8,32,0.00
2013-4-10,82,74,62,69,66,60,96,76,58,29.85,29.64,33,9,33,1.01
2013-4-11,65,51,41,63,48,32,96,87,70,29.78,29.58,18,5,18,0.20
2013-4-12,51,43,36,37,34,31,87,70,51,30.05,29.75,21,5,21,0.00
2013-4-13,63,49,34,40,36,31,89,63,38,30.10,29.95,15,3,15,0.00
2013-4-14,78,63,50,54,46,40,72,56,35,29.96,29.70,25,6,25,0.00
2013-4-15,77,66,58,64,57,50,85,74,58,29.92,29.78,18,3,18,0.00
2013-4-16,65,54,50,59,52,48,95,91,81,30.12,29.85,29,4,29,0.04
2013-4-17,84,67,52,71,61,50,98,82,54,30.12,29.76,26,5,26,0.00
2013-4-18,75,65,43,67,60,36,95,82,71,29.76,29.59,34,13,34,2.05
2013-4-19,52,44,39,37,31,27,79,63,41,30.09,29.73,22,7,22,0.00
2013-4-20,56,46,34,35,31,29,84,59,38,30.37,30.09,11,2,15,0.00
2013-4-21,63,51,40,39,35,32,73,55,34,30.45,30.29,17,5,17,0.00
2013-4-22,74,60,43,49,42,35,76,53,34,30.30,30.03,15,3,15,0.00
2013-4-23,66,57,42,61,51,41,94,80,60,30.05,29.80,26,4,26,0.39
2013-4-24,52,44,40,41,37,31,94,77,47,30.28,29.94,23,6,23,0.90
2013-4-25,62,50,36,42,36,33,92,62,35,30.37,30.27,17,3,17,0.00
2013-4-26,59,52,47,49,43,36,90,71,60,30.42,30.26,18,2,18,0.00
2013-4-27,57,53,50,55,51,48,97,94,86,30.33,29.91,19,3,19,0.18
2013-4-28,60,55,51,55,53,50,97,92,81,29.96,29.87,13,3,13,0.02
2013-4-29,76,62,47,61,55,46,98,80,56,29.99,29.85,18,3,18,0.01
2013-4-30,84,71,58,62,58,55,88,66,39,29.97,29.85,15,3,15,0.00
2013-5-1,84,72,56,64,58,52,88,63,41,30.09,29.97,13,1,13,0.00
2013-5-2,81,67,53,65,59,50,96,78,45,30.13,30.01,18,3,18,0.07
2013-5-3,53,48,42,51,47,41,96,95,93,30.07,29.78,12,4,12,1.08
2013-5-4,51,46,42,45,43,40,96,90,78,30.01,29.87,12,2,12,0.24
2013-5-5,59,53,47,56,51,45,97,94,86,30.00,29.87,12,2,12,0.24
2013-5-6,65,59,53,59,55,51,97,88,76,29.96,29.87,16,2,16,0.02
2013-5-7,76,64,54,60,57,53,97,78,49,30.03,29.95,14,2,14,0.00
2013-5-8,82,69,53,63,55,48,96,66,32,30.04,29.97,9,1,9,0.00
2013-5-9,81,71,64,66,61,55,93,73,45,29.99,29.82,26,5,26,0.29
2013-5-10,73,65,57,64,59,52,93,83,67,29.99,29.83,22,5,22,0.06
2013-5-11,71,59,50,56,48,37,90,68,37,30.14,29.96,27,7,27,0.00
2013-5-12,62,52,41,42,35,28,90,56,32,30.23,30.14,19,4,19,0.00
2013-5-13,72,57,38,44,38,28,94,55,25,30.25,30.08,9,1,9,0.00
2013-5-14,90,72,54,66,56,43,73,57,37,30.08,29.82,18,5,18,0.00
2013-5-15,87,77,67,65,61,57,76,59,43,29.96,29.84,19,6,20,0.00
2013-5-16,82,71,64,68,64,58,95,79,46,29.97,29.85,15,2,15,0.34
2013-5-17,77,70,65,67,64,62,92,82,67,29.98,29.91,11,1,11,0.00
2013-5-18,82,72,62,68,65,60,96,79,59,30.01,29.90,10,2,10,0.00
2013-5-19,91,78,68,75,70,64,89,76,56,29.91,29.76,14,3,14,0.00
2013-5-20,86,78,69,72,68,61,86,72,60,29.92,29.73,35,5,35,0.00
2013-5-21,78,70,64,68,65,62,96,85,67,29.91,29.72,19,5,35,1.07
2013-5-22,77,69,63,65,62,57,94,77,55,29.86,29.70,16,5,16,0.00
2013-5-23,66,61,54,59,55,50,89,81,66,30.23,29.86,23,3,23,0.00
2013-5-24,71,57,43,50,44,38,88,65,37,30.40,30.22,15,2,15,0.00
2013-5-25,73,62,48,56,50,45,93,67,44,30.37,30.14,13,2,13,0.00
2013-5-26,83,70,57,66,58,49,80,67,50,30.21,30.04,15,3,15,0.00
2013-5-27,84,72,64,68,63,58,95,74,46,30.04,29.82,24,5,24,0.55
2013-5-28,86,76,65,71,66,63,94,72,53,29.95,29.83,28,6,28,0.00
2013-5-29,88,78,68,70,65,61,80,65,48,29.99,29.87,21,5,21,0.00
2013-5-30,85,76,67,74,69,64,95,79,60,29.94,29.83,29,4,29,0.98
2013-5-31,80,72,64,72,68,62,97,88,78,29.97,29.78,15,3,15,1.93
2013-6-1,74,67,64,68,65,61,97,91,78,29.92,29.75,34,5,40,1.86
2013-6-2,70,64,59,62,60,57,94,85,71,30.01,29.87,14,3,14,0.00
2013-6-3,70,62,57,57,54,50,95,76,53,30.09,29.99,13,2,13,0.00
2013-6-4,77,66,52,62,56,50,95,74,51,30.10,29.99,11,2,11,0.00
2013-6-5,83,72,62,68,62,59,91,72,48,30.01,29.82,11,1,11,0.00
2013-6-6,81,73,67,66,64,59,87,74,50,29.84,29.78,20,5,20,0.00
2013-6-7,78,69,62,62,60,58,91,75,54,29.89,29.81,17,5,17,0.00
2013-6-8,82,70,57,64,58,53,96,69,39,29.98,29.88,13,2,13,0.00
2013-6-9,82,70,63,66,62,58,97,77,50,29.97,29.81,17,1,17,0.52
2013-6-10,80,70,62,67,64,61,98,82,61,29.92,29.79,12,2,12,0.12
2013-6-11,92,78,61,77,70,60,97,76,54,29.99,29.86,15,3,16,0.00
2013-6-12,93,85,75,77,74,71,90,72,56,29.97,29.73,28,6,28,0.00
2013-6-13,85,77,69,73,66,60,83,68,44,29.96,29.73,23,5,23,0.00
2013-6-14,84,73,60,65,59,55,89,65,42,30.09,29.94,15,2,15,0.00
2013-6-15,89,77,65,69,65,60,90,68,45,30.09,29.94,18,3,18,0.00
2013-6-16,85,75,69,72,69,66,92,82,60,30.03,29.92,13,1,14,0.02
2013-6-17,88,74,65,75,69,63,96,84,56,29.98,29.86,24,2,24,0.59
2013-6-18,89,76,63,70,65,61,97,73,42,29.95,29.87,11,2,11,0.00
2013-6-19,88,76,64,69,65,61,96,72,44,30.05,29.94,11,2,11,0.00
2013-6-20,92,80,68,71,68,63,93,67,40,30.12,30.04,10,1,10,0.00
2013-6-21,92,82,71,72,70,66,89,67,44,30.12,30.01,19,4,19,0.00
2013-6-22,91,77,67,74,70,65,95,79,50,30.10,30.00,24,4,24,0.41
2013-6-23,82,74,67,74,69,65,96,86,66,30.11,29.98,20,2,20,0.29
2013-6-24,91,78,67,78,72,66,96,82,57,30.10,29.96,15,2,15,0.00
2013-6-25,93,83,74,76,74,71,92,74,54,29.99,29.80,19,5,19,0.00
2013-6-26,92,80,74,80,74,70,94,82,64,29.89,29.68,24,5,24,0.43
2013-6-27,93,82,72,76,72,66,97,73,44,29.85,29.75,17,4,17,0.00
2013-6-28,90,80,72,73,66,55,91,64,34,29.83,29.67,23,4,23,0.00
2013-6-29,82,73,65,68,63,60,94,73,53,29.70,29.61,21,4,21,0.23
2013-6-30,76,68,64,68,64,62,96,89,67,29.86,29.69,15,4,15,0.16
2013-7-1,70,66,62,67,63,60,96,90,81,29.93,29.84,15,2,15,0.68
2013-7-2,66,65,64,65,64,62,97,95,92,30.02,29.88,16,2,16,1.51
2013-7-3,81,70,63,66,62,58,97,79,47,30.10,30.00,7,1,8,0.01
2013-7-4,85,73,60,68,64,58,96,75,45,30.10,29.99,13,2,13,0.00
2013-7-5,82,74,65,70,67,64,97,81,61,30.08,30.01,11,1,11,0.00
2013-7-6,89,76,64,73,68,60,96,79,53,30.09,29.96,16,2,19,0.75
2013-7-7,90,77,63,75,69,61,96,77,52,30.08,29.99,14,2,14,0.00
2013-7-8,90,81,71,76,72,68,91,75,55,30.11,30.01,14,3,14,0.00
2013-7-9,93,84,76,78,75,72,89,75,56,30.05,29.93,11,3,15,0.00
2013-7-10,87,80,75,76,74,70,95,83,64,29.97,29.87,14,2,14,0.04
2013-7-11,82,75,68,73,64,59,95,70,48,30.04,29.93,15,3,16,0.00
2013-7-12,83,73,62,66,61,56,90,66,42,30.11,30.01,15,2,15,0.00
2013-7-13,85,75,63,66,63,60,90,68,49,30.08,30.00,15,3,15,0.00
2013-7-14,88,76,66,76,70,63,94,81,60,30.13,30.03,11,2,11,0.13
2013-7-15,89,81,73,77,74,71,96,80,62,30.23,30.13,15,2,15,0.00
2013-7-16,94,83,72,76,73,70,95,73,49,30.29,30.21,10,1,10,0.00
2013-7-17,95,85,73,77,74,70,95,72,47,30.31,30.17,7,0,7,0.00
2013-7-18,97,85,74,78,75,70,94,73,42,30.19,30.02,8,1,8,0.00
2013-7-19,93,83,73,76,73,71,95,74,54,30.02,29.88,12,3,12,0.00
2013-7-20,94,82,74,78,74,69,89,76,58,29.91,29.76,31,4,37,0.62
2013-7-21,84,75,70,76,72,69,98,89,75,29.94,29.84,3,1,10,0.04
2013-7-22,89,79,72,76,73,70,97,83,60,29.85,29.77,4,1,12,0.00
2013-7-23,92,82,73,79,74,68,95,78,59,29.87,29.74,11,2,11,0.00
2013-7-24,79,72,64,69,60,56,85,68,50,30.02,29.86,16,2,16,0.00
2013-7-25,80,70,58,65,60,56,93,72,48,30.11,30.01,12,1,12,0.00
2013-7-26,77,69,59,69,64,58,96,85,64,30.07,29.95,8,1,8,0.02
2013-7-27,76,70,59,68,61,54,96,76,50,29.99,29.93,16,4,16,0.01
2013-7-28,80,67,52,63,56,51,96,71,42,30.05,29.98,11,2,11,0.00
2013-7-29,80,70,58,67,63,56,96,78,56,30.16,30.05,9,1,10,0.00
2013-7-30,71,69,67,70,66,62,97,91,77,30.14,30.01,8,1,8,0.63
2013-7-31,84,74,69,75,71,67,98,88,69,30.02,29.95,18,2,18,0.02
2013-8-1,85,74,66,72,66,61,97,79,46,30.06,29.98,11,2,12,0.00
2013-8-2,85,74,64,72,68,62,96,83,62,30.00,29.92,16,2,16,0.28
2013-8-3,86,76,69,75,71,65,96,85,66,30.08,29.91,11,1,11,0.01
2013-8-4,82,72,63,66,62,57,91,72,47,30.17,30.08,11,2,11,0.00
2013-8-5,75,68,63,67,64,60,94,86,68,30.10,29.91,14,1,14,0.00
2013-8-6,85,76,68,74,70,67,98,85,66,29.94,29.86,13,2,13,0.00
2013-8-7,86,75,70,75,71,69,98,88,66,29.92,29.83,9,1,9,0.00
2013-8-8,83,75,67,77,72,66,98,91,77,29.94,29.86,11,1,11,0.04
2013-8-9,83,75,70,74,71,69,98,89,66,30.04,29.91,9,1,9,0.03
2013-8-10,87,77,69,72,68,65,93,76,51,30.12,30.03,8,1,8,0.00
2013-8-11,86,75,63,71,65,61,94,72,44,30.13,30.03,8,1,8,0.00
2013-8-12,84,74,68,76,70,64,97,88,74,30.07,29.89,13,1,13,1.00
2013-8-13,80,71,63,72,67,57,98,86,65,30.10,29.91,14,2,14,0.01
2013-8-14,74,64,54,57,54,50,90,71,51,30.19,30.10,18,3,18,0.00
2013-8-15,74,64,54,59,55,52,93,75,51,30.16,30.07,12,2,12,0.00
2013-8-16,76,66,54,63,58,52,95,76,55,30.13,30.08,12,2,12,0.00
2013-8-17,78,68,63,67,62,57,91,79,65,30.17,30.09,12,2,12,0.00
2013-8-18,83,71,65,70,65,62,95,83,60,30.15,30.06,13,1,13,0.04
2013-8-19,85,73,61,70,66,60,97,80,56,30.13,30.02,10,1,10,0.00
2013-8-20,90,76,64,72,68,62,97,78,49,30.11,30.02,7,0,7,0.00
2013-8-21,89,77,65,72,69,64,97,78,50,30.13,30.03,9,1,9,0.00
2013-8-22,91,79,68,76,72,67,97,79,53,30.09,29.99,10,1,10,0.00
2013-8-23,89,79,71,75,71,68,95,78,54,30.09,30.01,11,2,11,0.00
2013-8-24,90,78,67,74,68,64,95,74,45,30.20,30.08,11,2,11,0.00
2013-8-25,94,78,63,72,67,60,94,72,41,30.26,30.16,8,0,8,0.00
2013-8-26,92,80,70,77,73,69,97,80,55,30.22,30.07,12,2,12,0.00
2013-8-27,92,81,72,79,74,70,93,80,55,30.08,29.98,8,2,8,0.00
2013-8-28,95,82,71,74,71,65,94,72,42,30.03,29.96,10,2,10,0.00
2013-8-29,96,83,73,77,72,69,90,71,48,30.02,29.92,10,2,10,0.00
2013-8-30,96,84,72,78,74,70,96,75,47,29.95,29.83,11,2,11,0.00
2013-8-31,98,85,74,78,75,72,95,73,46,29.85,29.71,12,3,12,0.00
2013-9-1,91,79,70,77,73,68,95,83,58,29.82,29.73,23,2,23,0.05
2013-9-2,85,74,66,69,66,62,97,78,52,29.93,29.81,14,3,14,0.00
2013-9-3,82,70,60,66,62,58,95,77,49,30.07,29.93,12,1,14,0.00
2013-9-4,84,70,56,65,60,55,96,74,45,30.16,30.07,8,1,10,0.00
2013-9-5,87,70,57,67,61,56,95,77,46,30.20,30.12,10,1,11,0.00
2013-9-6,90,75,61,68,65,59,96,74,44,30.18,30.04,10,1,10,0.00
2013-9-7,91,76,62,71,66,60,97,74,46,30.06,29.92,10,2,11,0.00
2013-9-8,83,76,71,76,71,66,92,84,75,29.98,29.90,10,0,10,0.02
2013-9-9,98,83,72,78,73,70,96,75,42,29.98,29.90,12,1,12,0.00
2013-9-10,97,83,73,77,74,71,96,75,48,30.08,29.97,10,1,10,0.00
2013-9-11,97,82,70,75,71,65,96,73,36,30.13,30.01,8,1,8,0.00
2013-9-12,86,76,65,72,66,54,94,73,46,30.06,29.95,17,2,17,0.00
2013-9-13,76,65,55,57,52,48,92,65,39,30.11,30.01,17,2,17,0.00
2013-9-14,76,61,48,52,48,42,91,64,33,30.17,30.05,10,1,10,0.00
2013-9-15,82,66,50,59,53,46,93,65,36,30.10,30.00,13,2,13,0.00
2013-9-16,74,66,60,64,60,56,94,82,61,30.23,30.06,11,2,14,0.14
2013-9-17,80,68,57,64,59,54,91,75,52,30.23,30.08,13,3,13,0.00
2013-9-18,88,75,65,72,67,61,95,79,52,30.11,29.96,17,2,17,0.04
2013-9-19,90,79,71,74,71,69,94,78,52,30.02,29.88,18,4,18,0.00
2013-9-20,75,71,63,71,68,60,95,90,81,29.92,29.83,16,2,16,0.26
2013-9-21,73,62,53,60,52,49,93,73,45,29.93,29.86,14,4,21,0.00
2013-9-22,75,62,50,55,51,46,94,69,39,30.01,29.93,12,1,12,0.00
2013-9-23,78,64,52,56,51,48,91,67,36,30.05,29.94,16,3,16,0.00
2013-9-24,82,67,54,67,59,50,95,78,49,29.96,29.81,15,2,15,0.00
2013-9-25,84,71,63,67,64,61,97,81,51,29.87,29.79,14,2,14,0.01
2013-9-26,85,71,61,67,61,57,96,74,42,30.02,29.86,12,2,12,0.00
2013-9-27,83,69,55,62,56,50,95,68,36,30.12,30.02,13,1,13,0.00
2013-9-28,84,71,57,65,59,54,92,68,43,30.09,29.98,19,3,24,0.00
2013-9-29,75,65,58,64,61,57,97,87,66,30.04,29.95,10,2,10,0.47
2013-9-30,78,67,62,68,64,60,98,90,66,30.00,29.91,13,1,13,0.01
2013-10-1,78,70,64,71,67,62,97,90,76,30.04,29.96,13,2,13,0.00
2013-10-2,83,72,68,73,69,67,98,93,66,30.08,29.98,16,1,16,0.10
2013-10-3,85,74,67,72,68,66,97,83,57,30.01,29.90,17,2,17,0.03
2013-10-4,86,75,68,73,69,66,97,84,60,30.01,29.92,17,2,17,0.00
2013-10-5,80,71,61,73,69,58,97,93,77,29.97,29.80,16,2,16,1.47
2013-10-6,64,57,48,58,48,41,94,74,49,29.92,29.82,19,4,19,0.00
2013-10-7,68,56,47,51,48,44,94,76,49,30.16,29.90,16,2,16,0.00
2013-10-8,72,58,45,55,49,44,97,74,43,30.23,30.14,15,1,15,0.00
2013-10-9,77,60,46,59,52,45,95,77,49,30.20,30.10,8,1,8,0.00
2013-10-10,80,65,54,66,59,53,97,84,54,30.15,30.02,17,0,17,0.00
2013-10-11,81,67,57,64,59,56,97,77,46,30.05,29.94,16,1,16,0.01
2013-10-12,74,64,58,67,61,56,97,91,79,30.17,29.97,8,1,8,0.09
2013-10-13,74,61,50,56,45,37,92,59,29,30.36,30.17,14,2,14,0.00
2013-10-14,69,58,49,55,48,38,82,68,53,30.33,30.08,11,2,11,0.00
2013-10-15,68,64,60,65,61,55,96,91,82,30.08,29.90,18,3,18,0.30
2013-10-16,62,55,47,57,47,43,89,76,54,30.04,29.95,14,3,14,0.00
2013-10-17,63,52,44,51,46,43,96,83,50,30.01,29.94,12,2,12,0.09
2013-10-18,65,52,44,50,45,41,95,78,52,30.06,29.96,12,2,12,0.02
2013-10-19,58,48,42,45,40,35,95,76,45,30.03,29.95,16,4,16,0.24
2013-10-20,67,53,41,46,42,38,91,70,45,30.02,29.93,22,4,22,0.00
2013-10-21,57,50,38,49,44,35,92,79,68,30.08,29.96,12,2,12,0.00
2013-10-22,59,45,32,47,38,31,97,78,49,30.09,29.82,20,4,23,0.08
2013-10-23,49,43,39,38,34,28,89,70,47,30.15,29.95,21,5,21,0.00
2013-10-24,48,41,32,37,31,23,92,70,42,30.42,30.14,21,4,21,0.00
2013-10-25,53,38,25,32,27,23,94,68,36,30.55,30.28,9,1,9,0.00
2013-10-26,67,49,34,48,36,28,79,61,48,30.28,30.00,19,4,19,0.00
2013-10-27,61,44,30,36,32,28,91,68,32,30.16,30.05,8,1,8,0.00
2013-10-28,68,50,33,45,38,31,94,69,36,30.27,30.08,9,1,9,0.00
2013-10-29,58,51,46,57,45,37,97,80,63,30.29,30.08,7,1,7,0.29
2013-10-30,74,66,58,68,63,57,98,88,71,30.09,29.88,21,4,21,0.08
2013-10-31,66,62,52,65,60,50,97,94,87,29.88,29.38,20,6,25,1.66
2013-11-1,63,53,46,50,46,42,96,78,51,29.86,29.64,17,4,17,0.00
2013-11-2,55,47,38,46,41,35,91,79,57,30.20,29.85,19,4,19,0.00
2013-11-3,59,45,32,41,36,31,97,72,39,30.34,30.19,11,1,11,0.00
2013-11-4,59,50,44,48,42,37,90,74,62,30.29,30.20,17,2,17,0.01
2013-11-5,66,57,50,53,50,47,95,77,58,30.32,30.08,14,2,14,0.04
2013-11-6,61,51,39,55,48,36,94,88,73,30.25,29.97,22,6,22,0.33
2013-11-7,54,41,31,39,35,30,96,81,54,30.41,30.25,12,2,12,0.01
2013-11-8,58,44,29,38,33,28,97,69,38,30.41,30.16,9,1,14,0.00
2013-11-9,66,52,41,46,41,35,88,67,42,30.22,30.10,19,4,19,0.00
2013-11-10,55,45,35,44,35,31,87,69,44,30.42,30.22,15,2,15,0.00
2013-11-11,63,47,36,49,37,32,91,70,42,30.43,30.14,24,4,24,0.02
2013-11-12,36,30,21,33,23,18,91,76,55,30.74,30.43,22,5,22,0.00
2013-11-13,44,30,18,24,20,15,93,69,33,30.74,30.39,15,3,15,0.00
2013-11-14,54,41,30,29,26,22,77,56,32,30.39,30.12,23,6,23,0.00
2013-11-15,54,47,41,46,35,27,89,64,47,30.13,30.00,12,3,12,0.00
2013-11-16,66,58,48,63,54,45,94,89,77,30.00,29.71,21,6,27,0.06
2013-11-17,76,65,48,68,53,28,93,69,26,29.97,29.44,37,10,37,0.23
2013-11-18,55,47,34,42,35,28,90,65,38,30.31,29.97,23,4,23,0.00
2013-11-19,46,38,32,31,29,27,82,69,50,30.38,30.25,9,2,9,0.00
2013-11-20,53,43,31,38,33,28,88,71,55,30.26,30.10,14,2,14,0.00
2013-11-21,52,50,47,51,46,38,97,86,57,30.20,30.11,14,2,14,0.73
2013-11-22,52,43,36,51,41,32,97,92,85,30.50,30.18,21,8,21,0.01
2013-11-23,36,30,20,33,22,13,91,74,51,30.73,30.49,26,9,26,0.00
2013-11-24,30,23,16,17,13,8,82,66,42,30.80,30.50,11,2,11,0.00
2013-11-25,34,31,26,27,21,16,78,67,55,30.51,30.21,13,2,13,0.00
2013-11-26,41,33,24,31,25,12,89,72,57,30.24,30.05,29,8,29,0.00
2013-11-27,28,22,18,15,11,6,85,63,46,30.39,30.22,25,8,25,0.00
2013-11-28,46,30,19,26,20,13,85,67,43,30.52,30.31,22,4,22,0.00
2013-11-29,48,35,25,29,25,20,86,68,47,30.63,30.43,7,2,11,0.00
2013-11-30,55,42,32,36,32,26,79,68,46,30.43,30.15,14,4,18,0.00
2013-12-1,58,46,38,45,39,33,93,78,59,30.16,29.93,6,1,6,0.00
2013-12-2,58,47,38,50,43,35,94,85,71,29.93,29.72,6,1,9,0.00
2013-12-3,59,51,44,53,48,43,97,91,79,29.76,29.68,13,2,13,0.00
2013-12-4,68,58,48,60,54,45,98,88,74,29.83,29.56,30,7,30,0.01
2013-12-5,49,31,22,44,27,20,93,87,79,30.30,29.83,22,7,22,0.00
2013-12-6,22,20,17,21,18,11,93,90,75,30.59,30.27,18,6,18,0.00
2013-12-7,20,14,6,13,8,2,87,77,68,30.74,30.49,11,4,13,0.00
2013-12-8,28,24,20,26,21,13,95,87,74,30.49,30.05,17,4,17,0.00
2013-12-9,28,25,21,25,19,15,92,80,64,30.34,30.13,19,3,19,0.00
2013-12-10,33,22,11,21,16,8,93,80,57,30.39,30.29,16,3,16,0.00
2013-12-11,32,21,8,24,15,1,94,80,64,30.70,30.36,20,4,25,0.00
2013-12-12,28,15,0,14,7,-3,89,71,51,30.70,30.36,12,3,12,0.00
2013-12-13,36,28,18,32,24,14,95,84,66,30.36,30.02,21,3,21,0.01
2013-12-14,35,33,28,33,31,24,96,93,86,30.14,29.85,25,7,25,0.12
2013-12-15,32,28,24,29,24,20,93,86,78,30.25,30.09,15,4,16,0.00
2013-12-16,45,36,30,34,31,27,92,84,64,30.13,30.04,14,3,14,0.01
2013-12-17,40,31,25,32,26,22,95,85,71,30.31,30.12,16,3,16,0.00
2013-12-18,45,35,23,36,26,19,89,72,48,30.32,30.02,18,5,18,0.00
2013-12-19,56,49,40,51,44,35,86,82,75,30.03,29.86,24,8,24,0.00
2013-12-20,63,56,41,60,53,39,95,89,83,29.87,29.76,28,11,28,0.25
2013-12-21,41,37,35,40,36,34,96,95,94,29.84,29.47,22,4,22,2.67
2013-12-22,40,35,31,37,33,28,97,90,80,30.26,29.65,19,5,19,0.00
2013-12-23,31,25,17,28,20,10,88,80,72,30.59,30.26,21,7,21,0.00
2013-12-24,24,17,9,14,7,0,83,66,45,30.68,30.44,13,4,16,0.00
2013-12-25,37,29,19,30,23,13,90,78,68,30.45,30.29,14,3,14,0.00
2013-12-26,45,34,24,32,28,22,95,79,51,30.45,30.33,11,3,11,0.00
2013-12-27,51,39,29,38,32,26,89,78,57,30.43,30.30,12,3,12,0.00
2013-12-28,49,41,32,38,34,30,93,78,62,30.31,29.96,13,3,13,0.00
2013-12-29,42,32,20,35,27,15,91,83,75,30.27,29.89,25,7,25,0.00
2013-12-30,27,20,13,18,11,7,81,69,51,30.39,30.27,15,4,17,0.00
2013-12-31,40,31,22,29,22,16,82,69,54,30.47,30.26,17,4,17,0.00
2014-1-1,43,37,31,34,31,27,93,78,64,30.27,29.99,16,4,16,0.03
2014-1-2,32,19,11,30,15,6,94,82,70,30.51,29.99,28,12,28,0.00